Wind_Speed
6 7 10 4 4 5 4 2 3 6 3 1 0 2 3 2 3 3 7 16 8 19 22 27 26 25 24 22 19 17 15 14 13 12 11 10 10 11 10 7 5 5 4 4 3 5 4 6 6
6 7 2 2 4 3 5 3 5 4 4 1 2 1 1 1 3 5 7 12 11 20 21 28 27 25 22 20 19 18 17 14 13 12 13 11 11 11 11 9 8 6 4 4 4 3 4 4 3
7 5 3 3 3 3 2 2 2 4 4 2 3 1 1 2 4 10 5 11 13 20 18 27 27 26 24 22 20 19 18 17 15 15 14 14 13 12 12 11 9 6 5 4 3 2 1 2 2
5 5 4 4 2 2 3 2 3 2 2 2 2 4 3 2 3 6 8 10 16 17 18 23 26 24 24 23 22 20 20 18 17 15 13 12 11 12 11 11 8 8 7 5 3 3 3 3 2
2 3 3 2 4 1 4 4 2 2 2 3 3 3 4 4 8 8 8 10 16 17 17 17 25 25 24 23 21 20 20 19 18 17 16 15 15 13 10 9 9 9 8 7 5 4 4 3 2
4 3 4 1 5 2 2 4 2 3 3 1 2 1 1 6 5 7 8 9 14 18 17 18 20 26 25 25 23 21 20 19 19 19 19 18 17 13 12 8 11 10 9 7 7 5 5 4 6
2 3 3 3 4 5 2 1 3 2 5 1 1 1 1 2 6 8 7 7 13 17 20 20 22 23 26 26 25 24 22 20 20 19 20 19 17 15 13 9 12 12 10 9 8 7 6 6 7
3 3 2 3 1 3 3 1 3 2 5 0 1 2 3 6 12 9 8 9 12 17 21 21 21 23 25 26 25 24 23 22 21 20 22 20 17 16 14 11 12 11 10 10 9 8 7 7 7
3 4 2 3 5 3 4 4 5 4 3 2 4 5 6 6 11 8 8 11 13 17 20 23 22 23 24 29 29 27 25 24 23 22 25 22 21 20 18 14 14 12 11 11 10 10 9 8 7
4 3 5 2 0 3 3 1 3 5 7 7 7 6 1 11 10 10 12 15 16 19 21 24 24 25 24 27 32 30 29 27 26 25 25 25 23 21 18 14 15 15 15 14 12 11 10 9 9
4 5 3 6 5 2 3 7 5 5 5 9 10 7 9 6 10 16 17 20 21 20 22 26 27 25 24 24 28 30 30 30 28 28 28 27 25 22 20 17 17 18 18 17 15 13 11 10 9
3 7 5 5 4 4 3 2 8 5 13 8 12 9 6 10 10 12 18 18 20 22 22 26 28 28 28 27 27 27 28 29 30 29 29 28 27 24 22 21 19 20 21 20 18 14 13 11 9
4 3 4 6 8 8 4 5 6 11 16 11 13 12 11 8 10 15 19 18 17 16 22 22 27 30 29 30 29 29 29 29 29 29 30 30 30 27 23 23 22 22 22 22 20 18 16 14 13
2 2 5 7 10 7 6 6 3 10 7 10 8 8 7 8 13 19 25 21 19 14 14 19 22 30 30 31 31 30 26 26 27 31 30 30 33 31 28 27 25 24 24 24 23 21 19 17 16
2 5 7 10 5 7 4 3 8 12 7 10 9 6 8 12 19 18 19 23 23 21 19 9 17 23 31 30 29 30 28 23 24 27 30 31 31 33 34 31 28 26 25 24 23 22 20 19 18
4 1 3 5 3 3 2 7 9 11 7 13 13 7 7 11 17 21 23 22 22 21 20 17 6 15 25 27 26 26 27 24 26 23 24 29 30 31 32 32 29 27 26 26 27 26 23 22 21
2 3 5 7 2 3 3 6 9 10 8 14 9 7 11 11 17 23 26 27 26 23 21 18 16 2 14 21 21 22 22 25 19 23 22 24 26 28 29 29 27 26 27 29 29 28 26 25 22
5 4 4 5 4 2 4 9 9 12 12 13 7 9 11 12 12 20 27 32 31 28 26 24 23 17 7 3 10 10 13 17 20 17 20 22 23 25 27 27 25 27 29 30 29 28 27 26 22
3 3 4 5 9 5 9 6 10 10 10 10 7 13 10 11 13 21 28 33 33 34 32 30 27 26 19 12 4 2 1 6 12 15 16 17 19 21 26 26 26 28 31 32 31 29 27 25 22
4 4 6 5 5 2 7 9 13 14 3 4 13 10 8 9 11 20 26 32 34 33 32 31 29 27 23 19 14 10 7 8 2 7 10 14 15 17 21 26 26 28 30 31 32 31 29 27 27
3 4 5 8 3 4 4 6 8 3 12 13 11 10 11 11 12 13 22 25 28 33 34 33 31 28 26 22 14 13 11 10 14 10 6 8 12 11 17 22 25 25 28 32 33 34 32 30 32
5 3 4 3 2 3 3 5 4 2 7 8 7 8 9 11 12 13 17 21 26 29 30 33 34 33 30 25 23 24 22 18 16 17 11 7 5 7 9 15 20 23 24 29 32 33 35 31 30
7 2 2 3 4 2 5 0 7 9 5 4 6 9 10 9 11 10 15 20 25 27 29 29 30 32 32 31 28 24 23 21 19 15 12 12 10 11 12 11 14 17 21 23 28 32 35 37 34
3 2 4 2 3 1 5 5 5 4 8 6 7 9 10 9 8 12 16 19 22 23 26 28 29 29 29 29 29 28 26 24 22 22 21 18 15 12 11 12 10 12 20 22 23 27 32 37 40
4 4 3 4 1 5 2 2 7 5 5 12 13 10 7 7 7 7 11 17 22 24 25 25 26 26 24 25 27 26 25 25 25 24 22 21 20 19 15 16 12 11 11 16 21 22 29 33 38
5 5 4 5 3 4 7 5 4 9 16 17 13 9 7 6 6 7 11 14 17 19 20 21 23 22 22 22 23 21 21 22 22 21 22 21 21 20 19 17 17 13 10 13 16 21 23 27 33
4 4 3 2 1 3 4 5 8 9 12 12 10 8 7 6 6 6 9 11 12 13 15 16 17 18 20 20 20 21 20 20 20 20 20 22 22 21 20 18 19 17 14 14 15 18 21 24 27
2 1 2 2 1 4 5 4 4 5 10 8 6 7 6 5 6 6 9 10 10 9 10 11 12 15 16 15 16 17 19 21 21 20 21 21 20 22 21 20 19 20 19 16 15 18 20 23 26
1 1 2 2 4 4 2 5 4 6 11 10 8 8 8 7 6 6 9 11 9 7 7 8 6 8 10 11 11 13 15 16 19 21 22 20 21 24 25 23 21 21 21 19 18 18 21 22 24
6 6 5 3 5 3 3 11 3 8 10 9 9 8 7 6 6 6 10 11 8 7 6 4 2 4 9 10 11 13 15 17 17 20 22 22 21 22 24 28 29 27 25 22 20 21 22 23 25
Wind_Direction
330 333 325 350 52 64 319 35 90 40 37 177 319 99 208 224 210 213 143 179 192 180 180 185 185 181 179 179 180 179 176 173 170 166 158 155 147 153 144 162 167 157 134 116 109 105 101 84 91
338 349 14 67 84 72 294 130 105 160 182 123 306 355 9 333 119 125 147 178 186 185 184 188 188 188 185 186 185 181 177 181 176 175 162 162 155 155 160 167 165 188 167 126 127 109 97 95 101
343 330 71 95 113 135 164 52 60 7 132 100 6 5 244 147 120 150 159 167 179 183 192 192 191 190 188 187 188 185 183 183 183 178 176 178 176 179 178 177 176 170 170 156 154 153 174 177 187
340 14 17 86 238 272 109 149 78 40 54 97 134 320 329 20 126 148 154 163 170 189 190 196 194 193 195 194 192 192 190 188 184 187 190 194 189 193 195 190 182 180 186 189 199 227 248 239 222
300 69 47 359 289 140 68 100 81 303 295 174 150 302 308 30 123 138 160 165 174 188 195 198 200 198 201 202 203 199 196 191 188 193 198 199 196 196 204 205 184 191 181 197 196 227 239 237 167
8 91 48 5 308 294 74 101 38 330 335 260 58 38 331 144 160 147 157 167 181 189 198 204 203 206 204 207 207 206 203 201 200 204 205 204 208 210 222 219 179 185 187 182 202 220 218 153 136
91 76 217 273 288 344 141 169 73 11 351 5 245 328 297 221 158 161 169 181 186 200 207 210 211 208 213 212 211 211 210 211 210 212 213 210 209 212 228 232 185 186 188 181 207 212 186 153 142
97 92 300 280 244 276 182 112 144 65 279 242 41 273 240 223 178 175 175 193 204 207 216 217 215 216 214 211 218 219 220 217 215 214 213 215 214 213 230 247 191 191 187 185 197 191 178 161 150
54 60 263 265 16 346 350 28 343 336 294 349 237 211 268 213 176 183 192 206 210 216 217 219 222 221 224 219 214 214 219 224 219 216 217 218 211 212 228 246 203 198 192 192 195 190 183 166 161
97 113 237 147 359 314 305 86 312 352 319 295 299 288 8 181 199 205 212 225 218 219 220 220 224 227 226 223 220 220 220 221 221 220 214 216 217 223 233 240 212 209 203 199 194 195 184 175 167
180 192 221 302 339 343 320 323 333 336 298 247 271 270 304 191 229 231 232 237 236 240 228 225 224 227 226 222 222 225 226 226 223 225 216 214 219 221 230 230 217 209 210 209 201 203 190 187 186
203 226 230 271 317 309 267 297 303 221 255 247 271 268 278 298 287 246 235 245 247 243 243 232 228 224 224 224 223 224 223 221 218 219 218 218 220 228 231 231 222 215 213 214 214 209 198 200 200
215 253 297 314 299 276 285 263 248 276 275 280 275 286 278 274 275 297 286 269 262 246 237 239 229 225 224 221 222 223 225 224 221 218 225 223 223 224 225 228 228 223 220 219 219 214 210 209 210
325 316 286 266 261 265 241 251 140 278 294 309 322 310 310 313 20 35 33 34 27 349 269 236 232 228 224 220 221 224 226 227 225 222 221 231 230 227 219 223 226 227 225 223 224 218 215 212 212
338 327 312 267 266 225 149 309 227 253 304 296 301 312 327 53 50 41 36 37 26 24 29 269 237 235 225 222 223 223 226 228 228 229 232 228 235 231 227 224 227 230 228 223 221 218 217 216 212
301 50 315 284 159 279 81 252 275 282 315 299 295 341 358 59 47 35 33 36 30 26 30 34 242 233 222 222 224 224 227 228 234 238 236 234 234 232 230 227 230 233 226 222 220 219 217 217 215
303 234 210 314 346 147 172 249 263 290 296 278 306 348 98 65 44 34 35 39 38 36 32 38 46 200 221 220 222 227 227 230 230 235 236 239 237 235 230 228 233 228 222 220 222 222 223 215 212
225 233 284 255 276 157 249 253 269 276 284 288 311 84 75 66 49 39 37 39 40 40 43 46 50 61 71 161 218 218 226 229 233 234 239 241 238 231 226 229 231 227 222 223 225 229 222 223 214
269 246 263 274 278 303 281 284 271 265 282 325 72 97 85 71 61 47 44 46 42 43 43 44 50 49 56 54 43 292 273 230 228 237 242 245 245 234 229 230 227 226 226 227 227 225 221 220 211
236 256 279 287 286 358 287 285 285 278 352 126 119 99 89 87 59 48 42 40 39 39 42 46 47 47 52 58 52 59 56 57 288 245 244 250 248 237 231 232 230 226 224 224 225 226 218 220 205
251 232 250 234 309 296 302 289 266 330 93 83 75 90 86 77 65 50 43 39 40 39 38 42 47 48 46 47 55 63 65 49 29 16 339 268 263 248 232 232 234 234 230 228 227 228 224 214 209
262 189 236 243 66 224 56 281 292 213 98 78 79 74 76 74 71 63 51 44 44 49 51 51 48 45 45 45 52 52 49 52 35 30 22 357 326 298 250 235 238 246 243 236 237 235 229 222 215
227 101 214 221 220 28 266 12 260 110 108 124 107 92 82 77 75 65 58 55 54 51 50 51 54 52 47 44 46 47 47 39 37 34 19 3 352 329 309 288 261 256 256 252 248 240 233 229 225
127 39 315 39 110 330 261 178 276 192 172 154 124 100 92 85 77 76 68 61 55 51 51 50 51 49 46 47 48 48 44 38 33 24 16 10 10 11 329 307 305 284 264 262 256 248 245 242 236
73 74 320 343 12 219 235 1 246 358 134 121 111 96 87 81 75 67 58 50 47 44 43 45 48 48 47 49 47 45 42 43 41 33 26 16 5 354 349 344 320 295 298 281 271 263 251 247 245
184 166 155 236 229 250 8 263 306 77 87 98 104 110 94 83 75 73 71 64 58 48 43 41 40 45 47 46 46 50 48 47 43 37 28 23 18 11 359 341 320 317 314 291 286 276 269 262 255
177 163 170 177 82 36 215 281 107 101 90 100 107 106 113 112 111 109 88 74 71 64 50 46 43 40 41 42 39 36 39 43 39 33 32 24 15 11 8 6 355 345 327 308 298 286 280 275 270
149 201 43 27 227 252 278 242 222 144 129 122 127 128 132 133 128 129 116 107 91 92 83 68 43 35 30 29 34 28 21 19 17 19 20 16 7 1 360 4 6 1 351 344 318 302 291 288 279
98 246 199 189 177 201 231 259 160 149 154 155 170 178 179 177 172 154 137 119 107 103 85 78 59 46 40 28 22 18 14 8 0 356 356 357 353 349 346 347 353 357 351 350 339 322 308 297 291
187 224 187 164 264 256 242 258 158 139 158 175 197 195 191 178 160 123 131 134 133 118 121 116 91 21 18 21 5 3 356 352 350 342 340 339 337 336 336 334 336 340 337 336 338 331 320 309 299
Height
807 806 805 805 834 841 844 826 814 818 814 805 802 808 813 809 814 834 804 806 806 809 811 815 817 819 821 824 827 829 831 833 834 836 837 839 841 842 844 845 845 846 846 846 846 847 846 846 848
807 806 806 815 844 857 847 818 821 810 805 801 803 804 808 810 800 803 804 805 805 807 810 812 815 818 821 823 825 828 830 833 834 835 837 838 840 842 843 844 845 846 846 845 846 846 846 846 848
808 807 816 830 846 848 842 819 815 808 803 803 807 800 802 806 800 800 802 804 805 807 809 812 814 816 819 821 825 827 829 831 833 835 837 838 839 840 842 843 844 845 846 845 846 845 846 846 847
808 809 817 837 836 817 815 814 806 807 805 801 803 812 800 798 798 799 801 803 805 807 809 812 814 817 819 821 822 825 827 830 832 834 836 837 839 840 841 842 844 844 845 845 845 845 845 845 846
810 818 837 838 829 810 810 806 802 807 806 805 802 809 807 800 799 799 800 802 804 806 808 810 813 815 818 820 822 824 826 828 830 832 835 836 838 839 840 842 843 844 844 844 844 844 845 845 845
820 823 847 849 832 812 809 802 803 807 804 805 806 807 805 801 801 800 801 802 804 805 806 808 810 812 815 817 820 822 825 828 831 832 833 834 836 838 839 840 842 843 844 844 844 844 845 845 845
820 835 841 831 825 819 810 800 806 808 810 807 801 809 804 801 800 801 801 802 802 803 804 806 807 810 813 815 818 820 823 826 829 831 833 834 836 836 838 839 841 842 843 844 843 844 844 845 846
821 831 830 828 830 820 807 802 799 804 808 799 799 813 808 796 798 799 800 801 802 802 802 803 806 809 811 814 817 820 821 824 827 829 831 834 836 837 838 839 840 842 843 843 843 843 843 845 846
814 843 848 828 825 820 807 809 802 799 802 801 798 798 795 796 797 798 799 798 799 801 802 802 803 806 809 812 814 817 819 821 824 827 829 831 833 834 836 838 840 841 842 843 843 843 843 844 845
828 848 833 817 816 819 814 814 812 809 810 807 801 793 794 794 796 795 795 795 794 796 798 799 800 801 804 806 810 813 816 818 820 822 826 828 830 832 834 835 837 839 840 840 841 842 843 844 845
821 837 820 813 811 811 812 812 808 812 814 806 803 795 792 792 793 791 789 789 789 789 792 794 796 797 800 802 805 808 812 815 818 820 822 824 827 829 830 832 834 836 838 839 839 839 841 843 845
823 817 814 813 810 812 812 807 813 810 804 797 794 791 790 789 787 786 786 784 784 784 785 788 790 793 795 797 799 802 805 808 812 815 819 822 823 825 827 828 830 832 834 836 838 840 841 841 843
818 815 812 811 811 810 809 812 812 807 794 793 790 788 787 787 785 784 781 780 779 779 780 782 785 788 790 794 797 799 801 804 808 812 815 818 820 822 824 826 828 830 831 833 834 837 838 840 842
815 816 815 811 807 807 810 808 805 798 792 792 788 788 787 787 789 787 783 783 782 781 779 778 780 782 785 789 793 796 799 802 805 807 810 814 816 818 820 822 824 827 828 830 832 833 835 837 839
813 820 817 807 804 806 803 810 808 794 792 790 786 787 785 792 791 793 791 787 784 781 777 777 779 780 783 785 789 792 797 800 802 805 808 810 812 814 816 818 820 823 825 828 830 831 833 834 835
820 822 831 806 801 801 802 822 799 791 792 788 783 787 789 796 799 797 794 788 786 783 780 778 777 779 780 783 786 790 793 797 799 801 804 806 808 810 813 816 817 819 821 824 826 828 830 831 833
828 836 830 818 801 806 808 818 800 789 791 787 786 790 797 801 802 801 798 793 789 786 784 781 778 778 782 784 786 788 791 793 796 798 801 803 805 807 810 813 816 818 820 821 823 825 827 828 830
834 832 824 824 806 805 812 814 805 796 788 781 788 799 802 804 807 805 801 796 793 790 787 785 782 780 782 785 788 790 791 792 794 796 798 801 802 804 806 809 813 815 817 819 821 824 826 827 829
817 823 827 821 808 809 810 812 802 791 787 786 794 800 806 809 811 807 802 798 796 793 791 790 787 787 786 786 788 790 792 794 795 796 797 798 800 802 804 806 807 810 813 815 819 821 824 826 829
819 822 826 817 805 806 808 809 798 785 788 786 794 803 809 811 811 810 807 805 803 801 798 795 794 792 790 790 792 792 793 796 798 798 799 799 798 799 801 803 805 806 808 811 815 818 819 823 825
815 819 822 822 812 807 810 813 800 785 797 801 806 809 810 812 814 815 813 813 811 809 806 804 801 798 797 795 794 792 793 796 798 800 802 802 801 800 800 801 802 804 806 806 808 811 815 818 819
822 809 810 811 820 831 810 830 801 790 804 808 813 816 816 816 816 817 818 818 817 815 811 808 807 804 802 800 797 799 801 799 803 805 805 804 805 804 802 802 802 801 802 804 806 808 808 812 814
816 809 811 812 821 823 820 835 809 799 809 812 817 819 820 822 821 822 822 822 822 820 818 816 812 808 808 808 805 804 803 805 805 804 804 806 806 806 805 803 801 800 800 801 803 804 806 806 808
807 810 814 819 829 843 820 821 809 794 797 809 817 821 823 824 823 824 826 826 826 824 821 819 817 816 814 813 812 812 810 809 806 806 807 808 809 805 806 806 800 798 798 798 799 800 801 803 803
810 826 841 844 853 838 815 816 800 787 789 801 820 827 830 829 828 829 830 830 829 827 825 824 822 821 821 818 817 816 817 814 813 813 812 812 810 810 805 808 803 796 794 795 796 796 796 797 797
818 817 842 855 843 836 816 823 803 811 808 814 820 826 828 832 832 831 832 832 830 831 829 829 830 828 824 824 823 821 820 819 818 817 818 816 812 810 808 806 805 796 792 791 791 791 792 793 792
809 817 811 828 873 858 822 806 812 816 821 823 825 826 827 830 832 833 833 833 832 832 832 830 832 832 827 827 828 829 826 821 820 819 816 817 818 814 810 806 803 797 791 789 788 787 787 787 787
805 806 823 836 859 866 821 811 806 817 824 827 829 830 830 829 829 830 831 832 834 835 834 830 835 836 833 830 826 828 827 825 825 820 816 815 818 819 815 807 800 796 794 787 786 786 785 783 782
811 814 813 817 827 841 847 814 801 807 818 827 828 826 825 826 827 828 830 832 835 837 834 833 835 836 834 835 835 831 828 827 826 825 822 816 814 815 814 810 800 793 792 788 784 783 782 780 777
805 808 811 829 827 834 819 805 805 812 818 819 821 821 821 824 826 827 830 832 834 832 833 835 835 835 834 830 834 831 830 829 826 827 825 820 814 810 809 805 799 791 791 787 781 779 778 777 774